Location: Martignon
(50.0333°N, 4.1833°E)
Time: 21:31:23
(UTC+00:00)

Daily predictions for brighter satellites

Satellite Brightness Start Highest point End
(mag) Time Altitude Azimuth Time Altitude Azimuth Time Altitude Azimuth
SL-08 R/B 4.5 17:20:42 10° N 17:26:52 66° ENE 17:32:54 10° SSE
Cosmos 2151 Rocket 3.7 17:26:11 10° N 17:30:39 59° ENE 17:35:05 10° SSE
SL-16 R/B 3.6 17:26:49 10° N 17:30:47 19° NE 17:34:43 10° E
Cosmos 1814 Rocket 4.0 17:27:18 10° SSW 17:32:32 70° ESE 17:37:46 10° NNE
Cosmos 2227 Rocket 3.9 17:31:44 10° ESE 17:33:44 12° E 17:35:44 10° ENE
SAR-Lupe-1 4.1 17:32:10 10° SSE 17:35:40 58° ENE 17:39:12 10° N
ATLAS 5 CENTAUR R/B 3.2 17:33:34 10° NW 17:37:37 41° SW 17:42:34 10° SSE
Cosmos 1607 4.0 17:31:39 10° SSW 17:37:43 68° SE 17:43:53 10° NE
Cosmos 1315 Rocket 2.6 17:34:02 10° N 17:37:51 85° ENE 17:41:39 10° SSE
Cosmos 1125 Rocket 3.6 17:32:46 10° NNW 17:37:53 55° ENE 17:42:58 10° SE
Cosmos 2061 Rocket 4.1 17:31:44 10° N 17:38:05 62° ENE 17:44:19 10° SSE
ARIANE 6 FM1 Upper Stage 4.3 17:39:02 10° NNW 17:41:53 19° NNE 17:44:44 10° ENE
CZ-4 R/B 4.3 17:37:56 10° SSE 17:41:54 77° ENE 17:45:53 10° N
SL-16 R/B 3.6 17:36:15 10° N 17:42:08 47° WNW 17:48:01 10° SW
Cosmos 1455 Rocket 3.9 17:38:46 10° N 17:42:28 27° ENE 17:46:09 10° SE
CZ-4C R/B 1.8 17:39:27 10° SSW 17:43:36 63° SE 17:48:56 10° NE
NOSS 3-3 (C) 4.0 17:39:11 10° SSW 17:44:10 50° ESE 17:50:06 10° NE
BREEZE-M DEB (TANK) 3.4 17:40:25 10° WNW 17:44:41 74° SSW 17:51:10 10° ESE
USA 306 3.0 17:42:17 10° WNW 17:45:07 36° SW 17:47:05 10° SSE
YAOGAN 1 2.5 17:42:40 10° SSE 17:46:51 60° ENE 17:51:04 10° N
Cosmos 158 Rocket 3.8 17:42:30 10° SSW 17:47:21 86° ESE 17:52:15 10° NNE
SeaSat 1 2.8 17:44:04 10° SSE 17:48:57 70° WSW 17:53:51 10° NNW
SAR-Lupe-4 3.6 17:48:14 10° SSE 17:51:48 88° WSW 17:55:24 10° NNW
NOAA 6 4.2 17:49:51 10° SE 17:54:48 51° ENE 17:59:48 10° N
Spot 4 Rocket 4.0 17:50:20 10° SSE 17:55:22 62° ENE 18:00:25 10° N
Cosmos 2228 4.1 17:52:44 10° NNE 17:56:02 22° ENE 17:59:19 10° ESE
COSMO-SKYMED 1 2.8 17:52:08 10° NNE 17:56:04 42° E 17:59:58 10° S
Okean 1 Rocket 3.0 17:52:30 10° N 17:56:55 71° E 18:01:16 10° SSE
CZ-4 R/B 3.4 17:58:01 10° NE 17:58:01 10° NE 17:58:11 10° NE
PSLV R/B 3.6 17:53:29 10° SE 17:57:28 49° ENE 18:01:26 10° N
USA 234 4.2 17:52:48 10° SSE 17:59:06 49° SW 18:05:27 10° WNW
Okean 2 Rocket 3.0 17:54:50 10° N 17:59:16 85° E 18:03:38 10° S
Cosmos 2221 Rocket 3.7 17:55:34 10° S 17:59:55 56° E 18:04:20 10° NNE
Meteor 1-11 4.3 17:55:14 10° S 18:00:52 89° W 18:06:39 10° NNE
ARIANE 5 R/B 3.7 17:56:08 10° S 18:01:03 47° W 18:05:56 10° NNW
SPOT 5 4.2 18:00:21 13° E 18:03:12 21° ENE 18:06:56 10° N
BREEZE-M (TANK) 2.8 18:04:04 10° W 18:06:26 56° SSW 18:12:01 10° ESE
Cosmos 1378 Rocket 4.2 18:03:04 10° SSW 18:07:18 56° WNW 18:11:33 10° N
Radarsat Rocket 4.0 18:02:39 10° SSE 18:08:30 80° ENE 18:14:52 10° NNW
CZ-2D R/B 3.3 18:06:45 10° SSE 18:10:40 90° NW 18:14:41 10° NNW
NOSS 3-3 (A) 3.7 18:06:28 10° SW 18:11:41 83° SE 18:18:00 10° NE
Sich 1 Rocket 3.7 18:07:53 10° N 18:12:27 87° W 18:17:01 10° S
CSL-04 Rocket 4.5 18:11:33 13° ESE 18:15:17 28° ENE 18:19:43 10° N
IRAS Rocket 4.4 18:11:42 10° SE 18:17:08 53° ENE 18:22:37 10° N
Cosmos 2297 Rocket 2.3 18:12:02 10° S 18:17:33 56° ESE 18:23:05 10° NE
Tiangong 0.4 18:17:06 10° S 18:18:00 11° SSE 18:18:49 10° SE
SKYMED 2 3.9 18:14:44 10° N 18:19:04 69° WNW 18:23:23 10° SSW
Cosmos 1025 Rocket 3.2 18:15:43 10° SSW 18:20:00 74° W 18:24:23 10° N
Orbus 7S? 4.4 18:11:49 10° WNW 18:21:44 74° NNE 18:24:45 21° ESE
Cosmos 2150 Rocket 4.2 18:17:28 10° NNW 18:22:29 49° ENE 18:27:13 11° SE
Resurs 01 Rocket 1.5 18:18:37 10° SSE 18:22:58 66° ENE 18:27:22 10° N
Cosmos 2298 Rocket 4.2 18:19:42 10° NNW 18:24:51 49° ENE 18:29:31 12° SE
Cosmos 2346 Rocket 4.5 18:18:46 10° S 18:25:03 88° E 18:31:21 10° N
Resurs 1-3 4.4 18:21:42 10° S 18:25:54 54° W 18:30:09 10° NNW
NOSS 3-4 (A) 3.8 18:23:19 10° NW 18:29:56 79° NE 18:37:47 10° SE
Cosmos 2344 4.3 18:23:29 10° S 18:29:59 29° ESE 18:32:55 22° ENE
NOSS 3-4 (C) 3.8 18:23:35 10° NW 18:30:13 79° NE 18:38:02 10° SE
Cosmos 1782 3.3 18:28:37 10° N 18:31:36 31° ENE 18:31:36 31° ENE
CRYOSAT 2 4.3 18:30:40 10° N 18:35:34 68° E 18:40:25 10° S
Helios 1A Rocket 4.3 18:39:28 17° SSE 18:39:28 17° SSE 18:40:23 10° SSE
Lacrosse 5 rocket 2.3 18:40:30 10° WNW 18:43:42 31° NNW 18:44:57 24° NNE
CZ-4B R/B 4.1 18:43:53 41° E 18:44:20 42° ENE 18:48:02 10° N
Cosmos 1980 4.2 18:39:41 10° NW 18:45:18 63° WSW 18:50:50 10° SSE
Meteor 1-27 4.3 18:40:16 10° NNW 18:46:04 85° W 18:51:54 10° S
ATLAS 2AS CENTAUR R/B 4.1 18:41:01 10° WNW 18:46:46 27° N 18:51:31 14° NE
Cosmos 2263 Rocket 3.2 18:43:07 10° SSE 18:46:41 25° ESE 18:46:41 25° ESE
Terra 3.4 18:51:39 18° NNE 18:51:39 18° NNE 18:53:38 10° NNE
SJ-6B 2.3 18:46:44 10° SSE 18:50:06 90° SW 18:53:34 10° NNW
Cosmos 2237 Rocket 2.7 18:45:04 10° NW 18:50:40 62° WSW 18:56:16 10° SSE
Cosmos 44 Rocket 3.3 18:55:50 10° SSW 19:00:42 64° SE 19:02:15 42° ENE
ERS-1 Rocket 3.9 19:04:25 29° NE 19:04:25 29° NE 19:07:47 10° N
USA 267 3.7 18:59:49 24° NE 19:03:44 55° NNW 19:10:05 10° W
Cosmos 1816 Rocket 4.4 18:59:13 10° S 19:05:16 66° E 19:11:27 10° NNE
Meteor 1-31 Rocket 3.6 19:06:45 33° N 19:06:45 33° N 19:08:49 10° N
Cosmos 2034 Rocket 3.9 19:02:18 10° N 19:08:27 67° ENE 19:13:44 15° SSE
ADEOS 4.0 19:12:55 40° NE 19:12:55 40° NE 19:17:15 10° N
Cosmos 1544 Rocket 3.7 19:10:44 10° N 19:14:21 55° NNE 19:14:21 55° NNE
SL-16 R/B 2.1 19:10:17 10° NNW 19:15:57 70° ENE 19:17:18 51° ESE
Cosmos 2227 Rocket 2.0 19:11:05 10° SSW 19:16:41 70° ESE 19:18:49 39° NE
Cosmos 1634 Rocket 4.2 19:10:40 10° N 19:16:45 46° ENE 19:17:03 46° E
Cosmos 1570 Rocket 4.5 19:14:17 10° SW 19:19:29 61° WNW 19:24:43 10° NNE
ARIANE 6 FM1 Upper Stage 3.3 19:17:45 10° NW 19:20:45 43° N 19:20:45 43° N
Cosmos 1975 Rocket 3.3 19:18:04 10° SSW 19:22:24 68° WNW 19:26:44 10° N
CZ-4 R/B 3.0 19:33:01 23° NNW 19:33:01 23° NNW 19:34:33 10° NNW
CZ-4C R/B 3.3 19:27:55 10° W 19:32:14 34° NNW 19:35:03 22° NNE
DNEPR-1 R/B 4.4 19:27:31 10° NW 19:32:20 60° SW 19:34:10 39° S
Cosmos 2228 4.1 19:29:14 10° NNW 19:33:11 41° W 19:37:08 10° SSW
MetOp-B 4.5 19:39:24 51° NNE 19:39:24 51° NNE 19:43:39 10° N
CZ-4B R/B 3.4 19:40:17 55° NNE 19:40:17 55° NNE 19:44:38 10° N
SPOT 5 3.1 19:39:23 49° SSW 19:40:36 68° WSW 19:45:41 10° NNW
MOS 1 4.2 19:43:58 74° NE 19:43:58 74° NE 19:49:26 10° NNW
CZ-4B DEB 4.1 19:43:20 65° S 19:44:11 83° WSW 19:49:41 10° NNW
CSL-04 Rocket 4.3 19:53:07 31° SSW 19:55:21 52° W 20:00:32 10° NNW
Cosmos 2297 Rocket 3.7 19:56:49 10° WSW 20:01:53 32° NW 20:06:06 14° NNE
Cosmos 1943 3.9 19:59:22 10° NNW 20:03:25 45° N 20:03:25 45° N
Lacrosse 5 rocket 4.3 20:18:05 10° NW 20:18:22 12° NW 20:18:22 12° NW
Terra 3.9 20:30:15 21° NNW 20:30:15 21° NNW 20:31:54 10° NNW
Cosmos 2263 Rocket 3.7 20:25:44 10° SW 20:28:28 29° SW 20:28:28 29° SW
ATLAS 2AS CENTAUR R/B 4.0 20:33:50 10° NW 20:38:56 29° N 20:38:56 29° N
Cosmos 2344 3.6 20:36:04 10° SW 20:43:00 67° WNW 20:43:00 67° WNW
USA 267 3.9 20:47:08 47° NNW 20:47:08 47° NNW 20:52:28 10° WNW
SL-16 R/B 4.2 20:55:13 10° NW 20:59:12 23° W 20:59:12 23° W
Cosmos 2227 Rocket 4.0 20:56:26 10° WSW 21:00:43 27° NW 21:00:43 27° NW
CZ-4C R/B 4.5 21:17:51 10° NW 21:20:01 19° NNW 21:20:01 19° NNW
